SKYNET 4E

Last updated on Wed Oct 29 2025 00:02:45 GMT+0000 (Coordinated Universal Time)

1 25639U 99009B 25300.97226862 -.00000023 00000+0 00000+0 0 9998 2 25639 11.9254 10.3510 0003264 208.3441 166.6448 1.00271797 48850
UTC large
Height (km)
Speed (km/s)
/
Latitude / Longitude
Inclination (degrees)
Orbital Period (minutes)
Azimuth
Elevation
Range (km)
Doppler Factor

Next 0 passes for location: London (51.5072 / 0.1276)

Sorry there are no passes over London.